Starlink 4331

operational
NORAD ID: 53046 Int'l Des: 2022-077 Owner: SPXS Country: US Constellation: starlink
LEOCIRCULARRETROGRADESSO

Starlink 4331について

説明を読み込み中...

リアルタイム位置

3D地球を読み込み中...

次回通過

高度履歴

Altitude vs Time

uPlot chart will show altitude changes over time

軌道要素

1 53046U 22077D 25305.62499344 -.00000530 00000-0 -32553-4 0 9994
2 53046 97.6026 125.0798 0001928 88.7210 271.4238 15.05642947181727
Epoch: Nov 1, 2025 • Age: 17 hours

現在のステータス

高度 568.4 km
速度 7.57 km/s
衛星直下点 -46.44°S, 33.11°W
打ち上げ日 Jul 11, 2022
運用期間 3.3 years
タイプ internet

技術仕様

分類 Payload
質量 297.00 kg
乾燥質量 275.00 kg
総質量 297.00 kg
長さ 0.20 m
直径 2.80 m
スパン 9.00 m
形状 Box + pan
製造者 SPXS
バスタイプ Starlink
フェーズステータス In Orbit
所有者/国 SPXS/US

大規模コンステレーション

Loading constellations...